Regional Weather Roundup
Issued by NWS

Home | Current Version | Previous Version | Text Only | Print | Product List | Glossary Off
Versions: 1 2 3 4 5 6 7 8 9 10 11 12 13 14 15 16 17 18 19 20 21 22 23 24 25 26 27 28 29 30 31 32 33 34 35 36 37 38 39 40 41 42 43 44 45 46 47 48 49 50

000
ASUS44 KMEG 021010
RWRTN
TENNESSEE HOURLY STATE WEATHER ROUNDUP
NATIONAL WEATHER SERVICE MEMPHIS TN
500 AM CDT TUE SEP 02 2014

TNZ002-004-019-021-049-052-054-088>092-021100-
WEST TENNESSEE

CITY           SKY/WX    TMP DP  RH WIND       PRES   REMARKS
MEMPHIS INTL   MOCLDY    77  72  84 SW5       30.02R
NWS MEMPHIS      N/A     75 N/A N/A MISG        N/A
JACKSON        MOCLDY    73  70  90 S3        30.03R
DYERSBURG      MOCLDY    73  63  68 S5        30.00F
UNION CITY     PTCLDY    73  72  94 S8        29.98S
PARIS          CLEAR     72  70  94 SW7       30.02R
HUNTINGDON     MOCLDY    71  69  93 S3        30.03R
LEXINGTON      CLEAR     72  70  94 CALM      30.03R
SAVANNAH       CLEAR     75  73  94 S3        30.05R
$$

TNZ008-025-027-028-033-062-065-066-021100-
NORTH MIDDLE TENNESSEE

CITY           SKY/WX    TMP DP  RH WIND       PRES   REMARKS
NASHVILLE      PTCLDY    74  69  85 CALM      30.05R
DICKSON        PTCLDY    72  68  88 SW5       30.05R
PORTLAND       CLOUDY    72  68  88 S6        30.04R
CLARKSVILLE    PTCLDY    75  69  81 SW6       30.02R
LEBANON        PTCLDY    74  69  84 S5        30.03R
SMYRNA         PTCLDY    73  70  91 S6        30.05R
MURFREESBORO   PTCLDY    74  69  84 S3        30.05R
COOKEVILLE     CLEAR     68  66  94 CALM      30.08R
GALLATIN       PTCLDY    70  69  96 CALM      30.06R
CROSSVILLE     CLEAR     71  67  87 CALM      30.13S
$$

TNZ061-075-076-078-094-096-097-021100-
SOUTH MIDDLE TENNESSEE

CITY           SKY/WX    TMP DP  RH WIND       PRES   REMARKS
LEWISBURG      PTCLDY    74  68  81 SW5       30.05R
FAYETTEVILLE   CLEAR     72  70  94 S3        30.08R
TULLAHOMA      CLEAR     70  66  88 CALM      30.09S
WINCHESTER     CLEAR     72  70  94 CALM      30.09R
MCMINNVILLE    CLEAR     68  68 100 CALM      30.08R
COLUMBIA         N/A     73  73 100 CALM      30.04R
SHELBYVILLE    CLEAR     73  72  94 S5        30.07R
$$

TNZ017-018-042-046-047-021100-
NORTHEAST TENNESSEE

CITY           SKY/WX    TMP DP  RH WIND       PRES   REMARKS
TRI CITIES     MOCLDY    67  65  93 CALM      30.11F
ELIZABETHTON   MOSUNNY   66  63  88 N3        30.14R
$$

TNZ012-013-036-069-073-074-021100-
CENTRAL EAST TENNESSEE

CITY           SKY/WX    TMP DP  RH WIND       PRES   REMARKS
KNOXVILLE      PTCLDY    71  69  93 SW6       30.07F
OAK RIDGE      PTCLDY    73  70  90 CALM      30.09F
GATLINBURG     SUNNY     66  64  94 CALM      30.09S
MORRISTOWN     SUNNY     70  70 100 S3        30.10F
$$

TNZ083-085-099-021100-
SOUTHEAST TENNESSEE

CITY           SKY/WX    TMP DP  RH WIND       PRES   REMARKS
CHATTANOOGA    MOCLDY    73  69  87 CALM      30.09R
$$

SKY/WX REPORTED AS FAIR MEANS FEW OR NO CLOUDS BELOW
12 THOUSAND FEET.




USA.gov is the U.S. government's official web portal to all federal, state and local government web resources and services.